Regional Weather Roundup
Issued by NWS

Home | Current Version | Previous Version | Text Only | Print | Product List | Glossary Off
Versions: 1 2 3 4 5 6 7 8 9 10 11 12 13 14 15 16 17 18 19 20 21 22 23 24 25 26 27 28 29 30 31 32 33 34 35 36 37 38 39 40 41 42 43 44 45 46 47 48 49 50

000
ASUS43 KBIS 311401
RWRND

NORTH DAKOTA REGIONAL WEATHER ROUNDUP
NATIONAL WEATHER SERVICE BISMARCK ND
800 AM CST SAT JAN 31 2015

NOTE: "FAIR" INDICATES FEW OR NO CLOUDS BELOW 12,000 FEET WITH NO
SIGNIFICANT WEATHER AND/OR OBSTRUCTIONS TO VISIBILITY.


NDZ001>003-009>011-017-311500-
NORTHWEST NORTH DAKOTA

CITY           SKY/WX    TMP DP  RH WIND       PRES   REMARKS
WILLISTON      CLOUDY    15  11  83 E18G25    30.23R WCI  -2
MINOT          CLOUDY     8  -1  66 NE14      30.32R WCI  -8
MINOT AFB      CLOUDY     8   3  81 E13       30.33R WCI  -8
$$

NDZ018>021-031>035-040>046-311500-
SOUTHWEST NORTH DAKOTA

CITY           SKY/WX    TMP DP  RH WIND       PRES   REMARKS
BISMARCK       CLOUDY    17  14  88 NE16G23   30.25R WCI   2
DICKINSON      CLOUDY    20  17  88 E16       30.10S FOG     WCI   6
GARRISON         N/A     10   1  67 E16G25    30.26R WCI  -7
HETTINGER ARPT FOG       21  20  96 E17       30.09S VSB 1/2 WCI   7
$$

NDZ004>008-012>016-024-026-027-054-311500-
NORTHEAST NORTH DAKOTA

CITY           SKY/WX    TMP DP  RH WIND       PRES   REMARKS
GRAND FORKS    MOCLDY     5  -2  72 N16       30.41R WCI -14
GRND FRKS AFB  PTCLDY     4  -3  71 NE18G24   30.40R WCI -16
DEVILS LAKE    MOCLDY     3  -6  66 NE18      30.35R WCI -17
$$

NDZ022-023-025-028>030-036>039-047>053-311500-
SOUTHEAST NORTH DAKOTA

CITY           SKY/WX    TMP DP  RH WIND       PRES   REMARKS
FARGO          CLOUDY    10   2  69 N18       30.33R WCI  -8
JAMESTOWN      FLURRIES  12   7  80 NE15      30.29R WCI  -4
$$



USA.gov is the U.S. government's official web portal to all federal, state and local government web resources and services.